Previsão horária em Aboyne

Hoje, 16 Maio, Domingo

Tempo Temperatura Precipitação Vento Pressão Humidade
00:00 +6°C° 0 mm 1 m/s 724 mmHg 89%
01:00 +6°C° 0 mm 1 m/s 724 mmHg 89%
02:00 +5°C° 0 mm 1 m/s 724 mmHg 89%
03:00 +5°C° 0 mm 1 m/s 724 mmHg 89%
04:00 +6°C° 0 mm 1 m/s 724 mmHg 87%
05:00 +6°C° 0 mm 1 m/s 724 mmHg 86%
06:00 +7°C° 0 mm 1 m/s 724 mmHg 85%
07:00 +8°C° 0 mm 1 m/s 724 mmHg 79%
08:00 +9°C° 0 mm 1 m/s 724 mmHg 73%
09:00 +9°C° 0 mm 2 m/s 724 mmHg 67%
10:00 +10°C° 0.1 mm 2 m/s 724 mmHg 65%
11:00 +10°C° 0.1 mm 3 m/s 724 mmHg 64%
12:00 +11°C° 0.1 mm 3 m/s 724 mmHg 63%
13:00 +11°C° 0.1 mm 3 m/s 724 mmHg 65%
14:00 +10°C° 0.1 mm 3 m/s 724 mmHg 67%
15:00 +10°C° 0.1 mm 3 m/s 724 mmHg 70%
16:00 +10°C° 0 mm 3 m/s 724 mmHg 72%
17:00 +10°C° 0 mm 3 m/s 724 mmHg 73%
18:00 +9°C° 0 mm 3 m/s 725 mmHg 75%
19:00 +8°C° 0 mm 2 m/s 725 mmHg 82%
20:00 +6°C° 0 mm 2 m/s 725 mmHg 88%
21:00 +6°C° 0 mm 1 m/s 726 mmHg 95%
22:00 +6°C° 0 mm 1 m/s 726 mmHg 95%
23:00 +5°C° 0 mm 1 m/s 726 mmHg 96%

Amanhã, 17 Maio, Segunda-feira

Tempo Temperatura Precipitação Vento Pressão Humidade
00:00 +5°C° 0 mm 1 m/s 726 mmHg 96%
01:00 +4°C° 0 mm 1 m/s 726 mmHg 96%
02:00 +4°C° 0 mm 1 m/s 726 mmHg 96%
03:00 +4°C° 0 mm 1 m/s 727 mmHg 96%
04:00 +5°C° 0 mm 1 m/s 727 mmHg 92%
05:00 +6°C° 0 mm 1 m/s 727 mmHg 89%
06:00 +7°C° 0 mm 1 m/s 727 mmHg 86%
07:00 +8°C° 0 mm 1 m/s 727 mmHg 81%
08:00 +10°C° 0 mm 1 m/s 728 mmHg 75%
09:00 +11°C° 0 mm 1 m/s 728 mmHg 70%
10:00 +12°C° 0.4 mm 1 m/s 728 mmHg 69%
11:00 +12°C° 0.4 mm 2 m/s 728 mmHg 67%
12:00 +13°C° 0.4 mm 2 m/s 728 mmHg 66%
13:00 +12°C° 0.6 mm 2 m/s 728 mmHg 69%
14:00 +12°C° 0.6 mm 2 m/s 728 mmHg 71%
15:00 +12°C° 0.6 mm 2 m/s 728 mmHg 74%
16:00 +12°C° 0.6 mm 2 m/s 728 mmHg 76%
17:00 +10°C° 0.6 mm 2 m/s 729 mmHg 78%
18:00 +10°C° 0.6 mm 2 m/s 729 mmHg 80%
19:00 +10°C° 0.3 mm 1 m/s 729 mmHg 85%
20:00 +8°C° 0.3 mm 1 m/s 729 mmHg 89%
21:00 +7°C° 0.3 mm 1 m/s 729 mmHg 94%
22:00 +7°C° 0 mm 1 m/s 730 mmHg 94%
23:00 +7°C° 0 mm 1 m/s 730 mmHg 94%

Depois de amanhã, 18 Maio, Terça-feira

Tempo Temperatura Precipitação Vento Pressão Humidade
00:00 +6°C° 0 mm 1 m/s 730 mmHg 94%
01:00 +6°C° 0 mm 1 m/s 730 mmHg 94%
02:00 +6°C° 0 mm 1 m/s 730 mmHg 93%
03:00 +6°C° 0 mm 1 m/s 730 mmHg 92%
04:00 +7°C° 0 mm 1 m/s 730 mmHg 91%
05:00 +7°C° 0 mm 1 m/s 730 mmHg 89%
06:00 +8°C° 0 mm 1 m/s 731 mmHg 87%
07:00 +8°C° 0.1 mm 1 m/s 731 mmHg 84%
08:00 +9°C° 0.1 mm 1 m/s 731 mmHg 81%
09:00 +9°C° 0.1 mm 1 m/s 731 mmHg 78%
10:00 +9°C° 0.1 mm 2 m/s 731 mmHg 74%
11:00 +9°C° 0.1 mm 2 m/s 731 mmHg 70%
12:00 +10°C° 0.1 mm 2 m/s 732 mmHg 66%
13:00 +10°C° 0.1 mm 3 m/s 732 mmHg 64%
14:00 +10°C° 0.1 mm 3 m/s 732 mmHg 62%
15:00 +11°C° 0.1 mm 3 m/s 732 mmHg 60%
16:00 +10°C° 0.2 mm 3 m/s 732 mmHg 66%
17:00 +9°C° 0.2 mm 3 m/s 732 mmHg 72%
18:00 +9°C° 0.2 mm 3 m/s 732 mmHg 78%
19:00 +8°C° 0.1 mm 2 m/s 733 mmHg 82%
20:00 +7°C° 0.1 mm 2 m/s 733 mmHg 86%
21:00 +7°C° 0.1 mm 1 m/s 733 mmHg 90%
22:00 +7°C° 0.1 mm 1 m/s 733 mmHg 90%
23:00 +5°C° 0.1 mm 2 m/s 733 mmHg 91%

19 Maio, Quarta-feira

Tempo Temperatura Precipitação Vento Pressão Humidade
00:00 +5°C° 0.1 mm 2 m/s 733 mmHg 91%
01:00 +4°C° 0 mm 2 m/s 733 mmHg 92%
02:00 +4°C° 0 mm 2 m/s 734 mmHg 92%
03:00 +3°C° 0 mm 2 m/s 734 mmHg 92%
04:00 +5°C° 0.1 mm 4 m/s 735 mmHg 75%
05:00 +5°C° 0.1 mm 3 m/s 735 mmHg 78%
06:00 +5°C° 0.1 mm 2 m/s 734 mmHg 82%
07:00 +4°C° 0 mm 4 m/s 735 mmHg 82%
08:00 +5°C° 0 mm 4 m/s 735 mmHg 76%
09:00 +6°C° 0 mm 5 m/s 735 mmHg 71%
10:00 +7°C° 0.1 mm 4 m/s 735 mmHg 60%
11:00 +7°C° 0.1 mm 4 m/s 735 mmHg 59%
12:00 +7°C° 0.1 mm 4 m/s 735 mmHg 58%
13:00 +5°C° 0.1 mm 3 m/s 735 mmHg 79%
14:00 +6°C° 0.1 mm 4 m/s 736 mmHg 77%
15:00 +7°C° 0.1 mm 6 m/s 738 mmHg 74%
16:00 +5°C° 0.1 mm 6 m/s 738 mmHg 75%
17:00 +5°C° 0.1 mm 6 m/s 738 mmHg 75%
18:00 +6°C° 0.1 mm 5 m/s 739 mmHg 75%
19:00 +3°C° 0 mm 5 m/s 739 mmHg 75%
20:00 +2°C° 0 mm 5 m/s 740 mmHg 75%
21:00 +1°C° 0 mm 4 m/s 740 mmHg 75%
22:00 +1°C° 0 mm 4 m/s 740 mmHg 76%
23:00 +1°C° 0 mm 4 m/s 741 mmHg 77%

20 Maio, Quinta-feira

Tempo Temperatura Precipitação Vento Pressão Humidade
00:00 0°C° 0 mm 4 m/s 741 mmHg 78%
01:00 +1°C° 0 mm 3 m/s 741 mmHg 80%
02:00 0°C° 0 mm 3 m/s 741 mmHg 82%
03:00 0°C° 0 mm 3 m/s 741 mmHg 84%
04:00 +2°C° 0 mm 2 m/s 741 mmHg 79%
05:00 +3°C° 0 mm 2 m/s 741 mmHg 75%
06:00 +4°C° 0 mm 2 m/s 741 mmHg 70%
07:00 +5°C° 0 mm 2 m/s 741 mmHg 65%
08:00 +7°C° 0 mm 1 m/s 741 mmHg 60%
09:00 +8°C° 0 mm 1 m/s 740 mmHg 54%
10:00 +8°C° 0 mm 2 m/s 740 mmHg 55%
11:00 +8°C° 0 mm 2 m/s 740 mmHg 55%
12:00 +9°C° 0 mm 3 m/s 739 mmHg 56%
13:00 +8°C° 0 mm 3 m/s 739 mmHg 59%
14:00 +8°C° 0 mm 3 m/s 738 mmHg 62%
15:00 +7°C° 0 mm 4 m/s 738 mmHg 65%
16:00 +6°C° 0 mm 4 m/s 737 mmHg 67%
17:00 +6°C° 0 mm 4 m/s 736 mmHg 70%
18:00 +6°C° 0 mm 4 m/s 736 mmHg 73%
19:00 +5°C° 0 mm 3 m/s 735 mmHg 79%
20:00 +5°C° 0 mm 3 m/s 735 mmHg 86%
21:00 +5°C° 0 mm 2 m/s 734 mmHg 92%
22:00 +5°C° 0 mm 2 m/s 733 mmHg 93%
23:00 +5°C° 0 mm 2 m/s 732 mmHg 95%

21 Maio, Sexta-feira

Tempo Temperatura Precipitação Vento Pressão Humidade
00:00 +5°C° 0 mm 2 m/s 731 mmHg 96%
01:00 +6°C° 0.1 mm 2 m/s 731 mmHg 97%
02:00 +7°C° 0.1 mm 1 m/s 730 mmHg 97%
03:00 +7°C° 0.1 mm 1 m/s 729 mmHg 97%
04:00 +7°C° 0.1 mm 1 m/s 728 mmHg 97%
05:00 +7°C° 0.1 mm 1 m/s 728 mmHg 97%
06:00 +7°C° 0.1 mm 1 m/s 727 mmHg 96%
07:00 +8°C° 0.2 mm 1 m/s 726 mmHg 96%
08:00 +8°C° 0.2 mm 1 m/s 726 mmHg 96%
09:00 +9°C° 0.2 mm 1 m/s 725 mmHg 95%
10:00 +9°C° 0.3 mm 1 m/s 724 mmHg 95%
11:00 +8°C° 0.3 mm 2 m/s 724 mmHg 95%
12:00 +8°C° 0.3 mm 2 m/s 723 mmHg 95%
13:00 +8°C° 0.1 mm 2 m/s 723 mmHg 94%
14:00 +8°C° 0.1 mm 2 m/s 723 mmHg 92%
15:00 +8°C° 0.1 mm 2 m/s 722 mmHg 91%
16:00 +8°C° 0.4 mm 2 m/s 722 mmHg 93%
17:00 +8°C° 0.4 mm 2 m/s 721 mmHg 96%
18:00 +7°C° 0.4 mm 2 m/s 721 mmHg 98%
19:00 +7°C° 0.6 mm 2 m/s 721 mmHg 98%
20:00 +7°C° 0.6 mm 2 m/s 720 mmHg 98%
21:00 +8°C° 0.6 mm 1 m/s 720 mmHg 99%
22:00 +8°C° 0.7 mm 1 m/s 720 mmHg 99%
23:00 +8°C° 0.7 mm 1 m/s 720 mmHg 99%
Mostrar mais

Necessitamos do seu Consentimento

A Meteoprog e os seus Fornecedores de Serviços podem armazenar e aceder a dados pessoais como cookies, identificadores do dispositivo ou outras tecnologias semelhantes existentes no seu dispositivo e processar estes dados para personalizar conteúdos e anúncios, assim como funcionalidades nas redes sociais e análise de tráfego.

  • Armazenar e/ou aceder a informações no seu dispositivo

    Os cookies, identificadores do dispositivo ou outras informações podem ser armazenados ou acedidos no seu dispositivo, para os fins acima indicados.

  • Anúncios e conteúdos personalizados, medição de anúncios e conteúdos, dados sobre o público-alvo e desenvolvimento de produtos

    Os anúncios e os conteúdos podem ser personalizados com base num perfil. Podem ser adicionados dados adicionais para uma maior personalização dos anúncios e dos conteúdos. A eficácia dos anúncios e dos conteúdos pode ser medida. Podem ser obtidas informações sobre o público que visualizou os anúncios e os conteúdos. Estes dados podem ser usados para desenvolver ou melhorar sistemas, softwares ou a experiência do utilizador.

Ao clicar em "Eu concordo”, permitirá o uso de cookies, identificadores do dispositivo e web beacons mencionados ou outras tecnologias semelhantes. As configurações do navegador do seu dispositivo podem ser alteradas.

Para certos fins, podem ser invocados interesses legítimos ao invés de consentimento. Pode ler mais informação sobre este assunto na nossa Política de Privacidade e Cookies.